Content
SEND FEEDBACK

Daily
Averages
Monthly
Summary
United States of America

CALDWELL, KANSAS


Home > North America > United States > Kansas
Elevation: 1140 feet     Latitude: 37 02N     Longitude: 097 37W

WEATHER
 
SELECT A DAY
Number of Records: 130,325;   Date Range: 3/17/09 - 11/19/14
 
SHARE

PRINT THIS DATA

[ ← Previous Day ]
WEATHER ALMANAC - JANUARY 3, 2013
[ Next Day → ]
[ °C ]   °F
Weather ElementAverageHighLow
Temperature26 °F37.4 °F (1:55 pm)15.8 °F (6:35 am)
Dewpoint20.3 °F24.8 °F (11:15 am)14 °F (6:35 am)
Humidity80.5 %100 % (12:55 am)52 % (4:15 pm)
Barometer30.40 in30.46 in (10:15 am)30.29 in (12:35 am)
Wind Speed6.1 mph12.7 mph (11:55 am)
Weather ElementAverage
Visibility10 mi
Wind DirectionW (266.1 °)

Weather ElementTotal
Precipitation---
Heating Degree Days38.4 (Base 65)
Averaged from 67 records on January 3, 2013
WEATHER CONDITIONS BREAKOUT
WIND DIRECTION BREAKOUT
WEATHER BY HOUR - JANUARY 3, 2013
[ °C ]   °F
Local TimeTemperatureDewpointHumidityBarometerVisibilityWind DirectionWind SpeedGust SpeedPrecipitationEventsConditions
12:35 AM24.8 °F23.0 °F93 %30.29 in10.0 miNW (310°)8.1 mphClear
12:55 AM23.0 °F23.0 °F100 %30.29 in10.0 miWNW (290°)6.9 mphClear
1:15 AM23.0 °F21.2 °F93 %30.29 in10.0 miWSW (240°)3.5 mphClear
1:55 AM21.2 °F19.4 °F93 %30.31 in9.0 miWSW (240°)6.9 mphClear
2:15 AM23.0 °F21.2 °F93 %30.31 in10.0 miWNW (290°)10.4 mphClear
2:35 AM23.0 °F21.2 °F93 %30.33 in10.0 miWNW (290°)4.6 mphClear
2:55 AM21.2 °F19.4 °F93 %30.34 in10.0 miWest (270°)5.8 mphClear
3:15 AM19.4 °F17.6 °F93 %30.34 in10.0 miWest (280°)4.6 mphClear
3:35 AM19.4 °F17.6 °F93 %30.35 in10.0 miWest (270°)5.8 mphClear
3:55 AM19.4 °F19.4 °F100 %30.35 in10.0 miWest (280°)4.6 mphClear
4:15 AM19.4 °F17.6 °F93 %30.35 in10.0 miWest (280°)5.8 mphClear
4:35 AM19.4 °F17.6 °F93 %30.36 in10.0 miWest (270°)5.8 mphClear
4:55 AM17.6 °F15.8 °F93 %30.35 in10.0 miWest (280°)6.9 mphClear
5:15 AM17.6 °F17.6 °F100 %30.35 in10.0 miWNW (290°)6.9 mphClear
5:35 AM17.6 °F15.8 °F93 %30.36 in10.0 miWNW (300°)3.5 mphClear
5:55 AM17.6 °F15.8 °F93 %30.37 in10.0 miWest (280°)6.9 mphClear
6:15 AM17.6 °F15.8 °F93 %30.38 in10.0 miWest (280°)5.8 mphClear
6:35 AM15.8 °F14.0 °F93 %30.39 in10.0 miWSW (250°)8.1 mphClear
6:55 AM17.6 °F14.0 °F86 %30.40 in10.0 miWest (280°)6.9 mphClear
7:15 AM17.6 °F15.8 °F93 %30.40 in10.0 miWest (270°)5.8 mphClear
7:35 AM15.8 °F14.0 °F93 %30.42 in10.0 miWest (270°)3.5 mphClear
7:55 AM15.8 °F14.0 °F93 %30.42 in10.0 miWNW (290°)4.6 mphClear
8:15 AM17.6 °F14.0 °F86 %30.43 in10.0 miWest (280°)5.8 mphClear
8:35 AM17.6 °F15.8 °F93 %30.43 in10.0 miWest (260°)6.9 mphClear
8:55 AM19.4 °F17.6 °F93 %30.43 in10.0 miWNW (300°)6.9 mphClear
9:35 AM24.8 °F19.4 °F80 %30.45 in10.0 miNW (310°)8.1 mphClear
9:55 AM26.6 °F21.2 °F80 %30.45 in10.0 miNNW (340°)9.2 mphClear
10:15 AM28.4 °F23.0 °F80 %30.46 in10.0 miNorth (350°)9.2 mphClear
10:35 AM28.4 °F23.0 °F80 %30.46 in10.0 miNNW (330°)9.2 mphClear
10:55 AM28.4 °F23.0 °F80 %30.46 in10.0 miNorth (350°)9.2 mphClear
11:15 AM30.2 °F24.8 °F80 %30.46 in10.0 miNNW (330°)11.5 mphClear
11:35 AM32.0 °F24.8 °F75 %30.45 in10.0 miNNW (340°)10.4 mphClear
11:55 AM32.0 °F24.8 °F75 %30.44 in10.0 miNNW (340°)12.7 mphClear
12:15 PM32.0 °F24.8 °F75 %30.43 in10.0 miNNW (340°)12.7 mphClear
12:35 PM33.8 °F24.8 °F70 %30.43 in10.0 miNNW (330°)11.5 mphClear
12:55 PM35.6 °F24.8 °F65 %30.42 in10.0 miNorth (360°)8.1 mphClear
1:35 PM35.6 °F24.8 °F65 %30.40 in10.0 miNorth (350°)8.1 mphClear
1:55 PM37.4 °F24.8 °F60 %30.40 in10.0 miNW (310°)9.2 mphClear
2:15 PM37.4 °F24.8 °F60 %30.40 in10.0 miNW (310°)8.1 mphMostly Cloudy
2:35 PM37.4 °F24.8 °F60 %30.40 in10.0 miNNW (340°)9.2 mphMostly Cloudy
2:55 PM37.4 °F23.0 °F56 %30.40 in10.0 miNNW (340°)8.1 mphPartly Cloudy
3:15 PM37.4 °F23.0 °F56 %30.41 in10.0 miNW (320°)8.1 mphScattered Clouds
3:35 PM37.4 °F23.0 °F56 %30.41 in10.0 miNW (320°)9.2 mphScattered Clouds
3:55 PM37.4 °F23.0 °F56 %30.41 in10.0 miNW (310°)6.9 mphScattered Clouds
4:15 PM37.4 °F21.2 °F52 %30.41 in10.0 miNW (320°)8.1 mphScattered Clouds
4:35 PM35.6 °F23.0 °F60 %30.41 in10.0 miNW (310°)5.8 mphScattered Clouds
4:55 PM37.4 °F21.2 °F52 %30.41 in10.0 miNNW (330°)5.8 mphClear
5:15 PM33.8 °F23.0 °F65 %30.41 in10.0 miNNW (330°)5.8 mphClear
5:35 PM32.0 °F21.2 °F64 %30.42 in10.0 miNNW (340°)4.6 mphClear
5:55 PM30.2 °F23.0 °F75 %30.42 in10.0 miNNW (330°)4.6 mphClear
6:15 PM32.0 °F23.0 °F69 %30.43 in10.0 miNNW (340°)5.8 mphPartly Cloudy
6:35 PM30.2 °F21.2 °F69 %30.43 in10.0 miNNW (340°)4.6 mphMostly Cloudy
7:15 PM28.4 °F23.0 °F80 %30.43 in10.0 miNorth (350°)4.6 mphMostly Cloudy
7:35 PM26.6 °F21.2 °F80 %30.43 in10.0 miNNE (20°)3.5 mphMostly Cloudy
7:55 PM26.6 °F21.2 °F80 %30.43 in10.0 miNorth (360°)3.5 mphMostly Cloudy
8:15 PM24.8 °F21.2 °F86 %30.43 in10.0 miCalmMostly Cloudy
8:35 PM24.8 °F21.2 °F86 %30.43 in10.0 miSW (230°)5.8 mphOvercast
8:55 PM24.8 °F21.2 °F86 %30.43 in10.0 miWest (270°)5.8 mphMostly Cloudy
9:15 PM24.8 °F19.4 °F80 %30.43 in10.0 miWest (270°)3.5 mphPartly Cloudy
9:35 PM26.6 °F19.4 °F74 %30.43 in10.0 miCalmPartly Cloudy
9:55 PM24.8 °F19.4 °F80 %30.42 in10.0 miCalmClear
10:15 PM24.8 °F19.4 °F80 %30.43 in10.0 miCalmClear
10:35 PM24.8 °F19.4 °F80 %30.43 in10.0 miCalmClear
10:55 PM23.0 °F17.6 °F80 %30.43 in10.0 miCalmClear
11:15 PM21.2 °F17.6 °F86 %30.43 in10.0 miCalmClear
11:35 PM17.6 °F15.8 °F93 %30.43 in10.0 miSSW (210°)3.5 mphClear
11:55 PM17.6 °F15.8 °F93 %30.44 in10.0 miSW (220°)5.8 mphClear
Hourly data recorded from KBKN, located miles away from Caldwell, Kansas







STORIES FROM OUR PARTNERS